GW7164 Weather Reports


time (UTC)temp
C
wind
direction
speed
KPH
gust
KPH
rain 1hr
cm
rain 24hr
cm
rain mn
cm
humidity
%
barometer
mb
20260506223530 8 182 1.6 3.2 0.00 0.56 0.00 94 1009.2
20260506222530 8 186 1.6 3.2 0.00 0.56 0.00 95 1009.2
20260506221530 9 180 1.6 3.2 0.00 0.56 0.00 95 1009.2
20260506220530 8 162 0.0 3.2 0.00 0.56 0.00 95 1009.3
20260506215530 9 162 0.0 3.2 0.00 0.56 0.56 95 1009.3
20260506214530 9 162 0.0 3.2 0.00 0.56 0.56 94 1009.2
20260506213530 10 0.0 0.0 0.00 0.56 0.56 93 1009.2
20260506212532 10 157 1.6 3.2 0.00 0.56 0.56 92 1009.3
20260506211530 10 180 3.2 4.8 0.00 0.56 0.56 93 1009.2
20260506210530 10 228 1.6 3.2 0.00 0.56 0.56 92 1009.3
20260506205530 10 228 1.6 4.8 0.00 0.56 0.56 93 1009.1
20260506204530 10 0.0 0.0 0.00 0.56 0.56 93 1009.1
20260506203530 9 228 0.0 3.2 0.00 0.56 0.56 93 1008.9
20260506202550 9 210 1.6 3.2 0.00 0.56 0.56 95 1008.8
20260506201530 9 0.0 0.0 0.00 0.61 0.56 95 1008.5
20260506200530 9 150 1.6 3.2 0.00 0.61 0.56 94 1008.5
20260506195530 10 155 1.6 3.2 0.00 0.61 0.56 92 1008.4
20260506194530 10 186 1.6 6.4 0.00 0.61 0.56 92 1008.4
20260506193530 10 154 1.6 3.2 0.00 0.61 0.56 91 1008.2
20260506192531 10 180 1.6 3.2 0.00 0.61 0.56 91 1008.2
20260506191550 10 152 1.6 4.8 0.00 0.61 0.56 91 1008.1
20260506190538 10 161 3.2 4.8 0.00 0.61 0.56 91 1008.0
20260506185518 10 164 3.2 4.8 0.00 0.61 0.56 91 1008.0
20260506184518 11 203 1.6 4.8 0.00 0.61 0.56 91 1007.9
20260506183519 11 221 1.6 6.4 0.00 0.61 0.56 91 1007.7
20260506182530 11 204 1.6 3.2 0.00 0.61 0.56 91 1007.6
20260506181529 11 205 1.6 3.2 0.00 0.61 0.56 91 1007.5